date,time,DOY,Ta_1_1_1,Pa_1_1_1,RH_1_1_1,LWin_1_1_1,LWout_1_1_1,SWin_1_1_1,SWout_1_1_1,PPFD_1_1_1,MWS_1_1_1,WD_1_1_1,SWC_1_1_1,Ts_1_1_1
[yyyy-mm-dd],[HH:MM],[ddd.ddd],[K],[Pa],[%],[W+1m-2],[W+1m-2],[W+1m-2],[W+1m-2],[µmol+1m-2s-1],[m+1s-1],[deg],[m+3m-3],[K]
2018-09-01,00:30,244.020,294.43233333333330,94496.666666666672,80.919333333333327,424.60466666666667,383.94266666666675,2.9849999999999999,15.483000000000002,31.264999999999997,0.23333333333333334,4.6223333333333336,0.28000000000000014,289.90533333333326
2018-09-01,01:00,244.041,293.99433333333332,94455.699999999997,83.180666666666653,421.38700000000000,372.88733333333340,0.78033333333333332,-0.96733333333333327,5.1023333333333341,0.12000000000000001,1.5223333333333333,0.28000000000000014,289.89200000000005
2018-09-01,01:30,244.062,293.61666666666679,94417.633333333331,84.951333333333366,419.37333333333333,371.99799999999988,0.61833333333333329,-2.7116666666666664,9.53333333333333394E-002,0.52666666666666662,5.8890000000000002,0.28000000000000014,289.87199999999996
2018-09-01,02:00,244.083,293.46233333333328,94438.399999999994,85.784666666666652,418.68966666666677,372.63466666666670,0.59000000000000008,-2.6580000000000004,4.53333333333333366E-002,0.0000000000000000,0.0000000000000000,0.28000000000000014,289.83833333333331
2018-09-01,02:30,244.104,293.30466666666678,94495.800000000003,86.539666666666690,417.66099999999994,372.05733333333325,0.70766666666666678,-2.7066666666666674,6.00000000000000012E-003,0.0000000000000000,0.0000000000000000,0.28000000000000014,289.81200000000013
2018-09-01,03:00,244.124,293.26966666666681,94494.133333333331,86.917000000000002,417.69266666666658,372.27100000000002,0.68699999999999972,-2.5939999999999999,2.40000000000000074E-002,0.0000000000000000,0.0000000000000000,0.28000000000000014,289.77600000000012
2018-09-01,03:30,244.145,293.18766666666670,94513.033333333340,87.519333333333350,417.58900000000000,379.07633333333337,0.64466666666666661,-2.1163333333333334,3.73333333333333434E-002,0.0000000000000000,0.0000000000000000,0.28000000000000014,289.74866666666662
2018-09-01,04:00,244.166,293.31766666666670,94547.433333333334,87.166333333333341,418.32200000000006,379.50266666666664,0.60466666666666669,-2.1470000000000002,5.06666666666666793E-002,0.0000000000000000,0.0000000000000000,0.28000000000000014,289.71866666666671
2018-09-01,04:30,244.187,293.38766666666669,94527.266666666663,87.015000000000015,418.73066666666659,378.90766666666667,0.59166666666666656,-2.1839999999999997,5.70000000000000159E-002,0.0000000000000000,0.0000000000000000,0.28000000000000014,289.69466666666665
2018-09-01,05:00,244.208,293.49433333333337,94529.666666666672,86.771333333333359,420.16100000000012,397.97266666666667,0.39133333333333337,-1.2083333333333330,7.80000000000000276E-002,0.51666666666666672,8.5000000000000000,0.28000000000000014,289.68333333333339
2018-09-01,05:30,244.229,293.61233333333331,94508.300000000003,86.398666666666671,421.08200000000005,405.42166666666657,0.33966666666666673,-1.2449999999999999,6.76666666666666944E-002,0.33333333333333331,5.3776666666666664,0.28000000000000014,289.67600000000010
2018-09-01,06:00,244.249,293.93766666666670,94515.633333333331,84.758000000000010,423.56600000000003,416.07100000000003,0.34166666666666662,-0.42533333333333334,7.76666666666667033E-002,0.18666666666666665,1.9223333333333334,0.28000000000000014,289.67566666666676
2018-09-01,06:30,244.270,294.14766666666668,94535.033333333340,83.600999999999971,424.43099999999993,418.30233333333319,0.49866666666666665,-1.8470000000000002,8.66666666666666974E-002,0.0000000000000000,0.0000000000000000,0.27499999999999986,289.69933333333330
2018-09-01,07:00,244.291,293.44799999999998,94527.199999999997,88.433999999999997,419.59233333333339,416.60100000000000,1.6226666666666667,-1.1353333333333329,7.80000000000000276E-002,0.80999999999999994,15.444666666666667,0.30533333333333346,289.74333333333345
2018-09-01,07:30,244.312,293.18133333333338,94487.533333333340,89.591333333333310,418.16166666666652,415.68766666666664,1.2236666666666667,-0.92866666666666642,5.26666666666666880E-002,0.13000000000000000,4.1776666666666662,0.30999999999999989,289.83633333333336
2018-09-01,08:00,244.333,292.93666666666655,94440.600000000006,90.682999999999993,416.90233333333344,415.45533333333339,0.78733333333333311,-1.0320000000000003,4.60000000000000200E-002,0.31333333333333330,7.5223333333333340,0.30999999999999989,289.90266666666668
2018-09-01,08:30,244.354,292.78566666666683,94411.333333333328,91.154333333333327,416.31233333333336,415.65700000000004,0.63866666666666683,-0.64366666666666672,3.20000000000000007E-002,1.0866666666666667,37.099999999999994,0.30999999999999989,289.93333333333345
2018-09-01,09:00,244.374,292.74900000000008,94381.633333333331,91.532333333333327,416.32466666666664,415.78333333333319,0.39799999999999996,-0.46066666666666667,2.43333333333333388E-002,9.66666666666666646E-002,1.0776666666666666,0.30999999999999989,289.93600000000009
2018-09-01,09:30,244.395,292.62866666666667,94314.033333333340,91.308333333333337,415.12099999999987,413.48533333333330,0.60000000000000009,-1.4253333333333333,2.66666666666666684E-002,8.00000000000000017E-002,1.3890000000000000,0.30999999999999989,289.93266666666676
2018-09-01,10:00,244.416,292.53666666666686,94384.566666666666,91.727999999999994,415.27799999999991,413.81400000000008,0.43266666666666664,-0.60033333333333327,4.43333333333333496E-002,0.0000000000000000,0.0000000000000000,0.30833333333333329,289.92600000000004
2018-09-01,10:30,244.437,292.65099999999990,94393.199999999997,90.818999999999960,415.87800000000004,414.64533333333333,0.69999999999999984,-0.20866666666666669,5.03333333333333480E-002,0.0000000000000000,0.0000000000000000,0.29999999999999999,289.91900000000004
2018-09-01,11:00,244.458,292.64099999999996,94378.066666666666,90.624666666666670,415.76099999999991,414.15900000000005,0.61633333333333340,-0.34799999999999998,8.16666666666666929E-002,0.23333333333333334,3.3776666666666668,0.29999999999999999,289.91800000000001
2018-09-01,11:30,244.479,292.57166666666677,94401.566666666666,90.842333333333343,415.36533333333335,412.98100000000005,0.66433333333333333,0.65700000000000003,3.1839999999999997,0.0000000000000000,0.0000000000000000,0.29999999999999999,289.91466666666662
2018-09-01,12:00,244.499,292.45999999999998,94458.866666666669,91.236666666666679,414.92266666666666,412.97733333333332,1.1406666666666669,5.1979999999999986,12.352333333333332,0.0000000000000000,0.0000000000000000,0.29999999999999999,289.91666666666674
2018-09-01,12:30,244.520,292.45800000000003,94526.466666666660,91.144666666666666,414.99766666666670,410.68999999999994,3.7803333333333331,24.115333333333339,52.245333333333328,0.0000000000000000,0.0000000000000000,0.29999999999999999,289.90999999999997
2018-09-01,13:00,244.541,292.47233333333332,94555.633333333331,90.746666666666655,415.57700000000006,412.88133333333332,6.6450000000000005,44.097666666666676,94.163666666666671,0.0000000000000000,0.0000000000000000,0.29999999999999999,289.90999999999991
2018-09-01,13:30,244.562,292.61333333333334,94612.133333333331,90.509333333333345,416.47466666666674,414.98366666666681,8.0316666666666681,51.101666666666688,107.52900000000001,0.0000000000000000,0.0000000000000000,0.29999999999999999,289.91333333333330
2018-09-01,14:00,244.583,292.65999999999991,94627.699999999997,90.541333333333327,416.73166666666663,415.22199999999992,5.3736666666666686,36.151000000000003,81.120000000000019,0.0000000000000000,0.0000000000000000,0.29999999999999999,289.92533333333341
2018-09-01,14:30,244.604,292.58300000000020,94633.800000000003,91.149333333333303,415.97566666666677,415.10499999999996,2.2303333333333333,16.310666666666666,42.804333333333346,0.72000000000000008,16.288999999999998,0.31166666666666659,289.94366666666667
2018-09-01,15:00,244.624,292.47733333333332,94653.866666666669,91.592666666666659,415.66433333333327,414.82466666666670,6.6870000000000003,43.114666666666672,98.966999999999999,0.0000000000000000,0.0000000000000000,0.34666666666666657,290.03266666666667
2018-09-01,15:30,244.645,292.67433333333332,94637.800000000003,88.545000000000016,416.64600000000002,411.86300000000006,26.664333333333339,164.50900000000001,347.74233333333342,0.0000000000000000,0.0000000000000000,0.33566666666666661,290.11266666666666
2018-09-01,16:00,244.666,292.70133333333342,94592.300000000003,88.157666666666699,419.06199999999995,393.43166666666667,68.579666666666668,447.94333333333333,899.95866666666666,0.0000000000000000,0.0000000000000000,0.34733333333333316,290.18933333333337
2018-09-01,16:30,244.687,293.62900000000002,94527.899999999994,82.979666666666688,424.76566666666662,384.33066666666673,69.105999999999995,442.78733333333338,894.67833333333328,0.20999999999999999,4.7333333333333334,0.33999999999999991,290.27900000000005
2018-09-01,17:00,244.708,293.99866666666674,94523.100000000006,83.376333333333335,429.78166666666669,392.29133333333323,83.734333333333311,544.61299999999994,264.59699999999998,0.0000000000000000,0.0000000000000000,0.33066666666666672,290.34666666666664
2018-09-01,17:30,244.729,294.69799999999998,94516.800000000003,82.792333333333332,436.94533333333311,401.45933333333329,107.42299999999997,716.24999999999989,1457.9863333333333,0.0000000000000000,0.0000000000000000,0.33000000000000002,290.42733333333337
2018-09-01,18:00,244.749,295.28000000000009,94522.899999999994,80.397333333333350,441.14833333333337,403.75700000000001,106.49233333333333,713.88499999999999,1444.6013333333331,0.15666666666666668,4.4113333333333333,0.32333333333333347,290.53700000000009
2018-09-01,18:30,244.770,295.95100000000002,94539.566666666666,77.614999999999995,442.35133333333323,416.15766666666673,68.687333333333328,455.26766666666674,930.01966666666658,0.0000000000000000,0.0000000000000000,0.32000000000000012,290.65266666666662
2018-09-01,19:00,244.791,296.42933333333332,94565.766666666663,75.508666666666642,445.57266666666658,422.22966666666667,72.198000000000008,474.26166666666654,978.13399999999956,0.0000000000000000,0.0000000000000000,0.32000000000000012,290.76800000000003
2018-09-01,19:30,244.812,296.80166666666662,94581.133333333331,72.423666666666662,447.27733333333333,422.94866666666655,76.672333333333327,499.95600000000002,1042.5213333333336,0.0000000000000000,0.0000000000000000,0.31933333333333347,290.87633333333338
2018-09-01,20:00,244.833,297.21066666666667,94580.000000000000,68.498333333333321,450.78433333333328,416.33333333333314,91.076000000000008,587.31766666666658,1224.5173333333335,0.0000000000000000,0.0000000000000000,0.30999999999999989,290.99900000000002
2018-09-01,20:30,244.854,297.67466666666667,94573.666666666672,67.107666666666674,451.07333333333332,429.86199999999997,61.698666666666675,414.14566666666661,841.01333333333366,0.0000000000000000,0.0000000000000000,0.30999999999999989,291.12066666666664
2018-09-01,21:00,244.874,297.77266666666674,94572.100000000006,67.576666666666668,454.19499999999999,416.89666666666676,90.526999999999987,555.35166666666657,1170.5926666666669,0.0000000000000000,0.0000000000000000,0.30999999999999989,291.24066666666670
2018-09-01,21:30,244.895,298.06000000000006,94580.699999999997,65.881666666666675,455.24799999999999,409.44900000000013,89.987000000000009,540.19833333333338,1130.8759999999997,0.0000000000000000,0.0000000000000000,0.30999999999999989,291.34300000000002
2018-09-01,22:00,244.916,297.90366666666682,94581.966666666660,67.098999999999990,452.01266666666669,402.14333333333332,76.961666666666645,442.16999999999996,934.64766666666651,7.33333333333333337E-002,5.2000000000000002,0.30633333333333329,291.43766666666670
2018-09-01,22:30,244.937,297.82666666666677,94598.533333333340,67.455333333333328,448.07800000000009,401.51033333333339,46.492333333333349,270.22066666666666,572.69700000000000,0.0000000000000000,0.0000000000000000,0.29999999999999999,291.50900000000007
2018-09-01,23:00,244.958,297.29566666666670,94613.000000000000,69.732999999999990,442.08933333333346,394.21433333333346,25.898333333333333,146.05366666666669,324.15966666666674,0.10333333333333333,2.3666666666666667,0.29999999999999999,291.55033333333341
2018-09-01,23:30,244.979,297.54333333333324,94623.233333333337,68.614000000000004,443.78433333333328,389.99233333333336,35.879333333333335,162.98566666666667,339.22199999999998,0.0000000000000000,0.0000000000000000,0.29999999999999999,291.56400000000002
2018-09-02,00:00,245.000,297.24633333333338,94632.199999999997,71.281666666666680,439.27100000000007,386.17966666666678,18.707000000000001,78.153666666666666,168.89999999999998,0.0000000000000000,0.0000000000000000,0.29999999999999999,291.56133333333338
